Theta_e
361 362 363 362 363 364 361 361 362 365 365 364 364 364 363 362 364 363 362 361 360 359 360 359 360 361 360 361 361 362 361 360 361 359 360 359 359 358 359 358 357 357 356 355 357 356 356 356 356 356 356 356 356 356 356 355 356 355 355 354 354 354 354 354 354 353 353 353 352 352 352 353 353 353 353 353 353 354 353 352 354 353 354 354 353
360 362 361 361 361 363 363 362 362 363 363 364 364 362 361 361 363 365 362 362 361 362 361 358 357 358 361 360 360 359 362 360 361 360 361 361 360 359 358 358 358 357 357 358 357 356 356 356 356 356 355 356 356 356 356 355 355 355 355 354 354 354 354 353 354 352 352 353 352 353 352 353 353 353 353 353 353 353 353 353 353 353 354 353 353
361 362 362 362 361 362 360 362 361 362 364 364 365 364 363 362 363 363 364 363 361 362 362 360 360 359 359 359 360 362 362 362 360 360 358 361 360 359 360 359 358 358 358 358 357 357 357 356 357 356 355 355 355 355 355 355 355 355 354 354 354 354 353 353 353 353 352 352 352 353 353 353 353 353 353 353 353 352 353 353 353 353 353 352 353
364 364 363 362 360 361 362 363 364 364 365 364 363 364 365 363 366 367 366 366 364 362 363 358 358 357 362 360 361 361 361 362 358 357 359 361 360 360 359 360 359 358 358 357 357 355 354 356 356 356 356 355 355 355 354 355 355 355 354 354 353 353 354 353 353 353 353 352 353 353 353 353 353 353 352 352 352 353 352 352 352 352 352 352 352
365 365 365 363 363 363 361 364 364 366 366 366 366 366 364 363 365 368 365 365 362 362 363 359 357 359 360 360 361 360 363 362 362 360 357 359 360 357 358 360 365 359 358 357 357 356 354 357 356 357 357 356 356 355 355 355 355 354 354 354 354 353 353 354 354 354 353 353 354 353 353 353 353 353 353 351 353 353 352 352 352 352 352 352 352
366 365 364 363 365 365 364 363 365 368 367 368 362 363 363 363 363 363 362 364 362 362 358 357 354 358 358 359 361 362 362 361 360 359 359 358 359 360 357 359 361 363 364 358 357 358 357 357 356 357 357 357 357 357 355 355 355 355 354 354 354 354 353 354 355 354 354 354 354 354 354 353 353 353 353 353 352 353 352 352 352 353 352 352 352
367 366 364 364 363 363 364 364 367 369 364 366 364 366 365 364 362 363 364 362 360 361 360 358 355 355 357 358 358 361 362 360 361 360 360 362 362 358 358 356 357 360 361 364 360 358 357 356 356 357 356 357 358 357 355 356 356 355 355 354 355 355 354 355 355 354 354 354 354 354 354 354 354 353 353 352 352 352 352 353 352 352 352 352 350
368 368 365 365 363 362 362 367 369 366 365 367 367 364 365 364 364 363 361 359 361 359 359 357 355 352 357 360 360 362 362 362 361 359 358 362 361 360 359 358 359 358 359 359 361 362 358 358 357 357 357 356 356 357 356 354 353 353 353 355 355 356 355 355 355 355 355 355 354 354 354 354 354 353 353 353 352 353 352 352 352 351 350 349 347
369 369 367 366 363 363 363 366 368 365 366 365 365 365 365 361 365 365 362 359 358 356 355 354 353 353 354 356 358 361 360 362 361 361 360 361 360 357 358 359 360 357 360 360 362 361 360 358 359 358 356 357 358 357 357 357 356 355 356 355 355 355 356 355 355 355 355 355 354 354 354 354 353 353 353 352 353 352 352 352 352 349 347 346 346
369 368 367 366 365 364 364 367 367 366 364 364 365 365 365 363 362 365 362 361 356 356 353 351 350 350 352 351 357 357 359 361 362 361 361 360 360 358 357 357 358 357 357 360 359 360 359 359 359 359 358 358 357 358 356 357 356 355 356 355 355 356 356 356 356 355 355 355 354 354 354 354 353 353 354 353 353 353 352 350 348 347 345 345 346
369 369 368 365 365 365 365 367 366 367 365 363 364 365 364 364 361 364 364 360 359 358 353 354 351 351 350 351 354 358 360 359 362 360 360 359 358 358 355 359 358 358 360 361 359 359 360 359 360 363 362 358 359 357 356 357 357 357 357 357 357 357 357 356 355 355 355 355 354 353 354 354 353 353 353 353 353 352 350 348 346 346 345 345 345
370 370 369 367 365 365 366 367 366 366 363 361 361 362 363 362 361 360 360 360 359 355 357 353 349 351 352 353 354 356 358 360 361 360 362 361 360 359 355 357 358 358 357 359 359 358 360 361 360 359 360 361 358 359 358 357 357 357 357 357 357 357 357 356 355 355 355 355 354 354 353 353 352 353 352 352 352 350 347 344 344 345 346 345 345
369 369 368 367 367 367 367 366 367 365 364 362 363 363 365 365 364 364 361 360 355 356 354 353 350 347 354 351 354 357 360 359 358 358 358 358 359 358 358 357 357 358 359 359 358 358 358 359 360 361 361 361 360 359 359 359 358 358 357 357 357 358 356 356 355 356 356 355 354 353 353 353 352 352 351 351 351 349 346 344 345 346 345 345 344
369 370 370 368 368 366 367 367 367 366 366 366 367 366 366 366 365 364 364 359 358 357 351 350 346 340 339 343 348 353 357 354 353 353 355 355 356 358 359 356 354 356 358 359 358 357 357 358 359 359 360 361 361 361 361 360 359 358 357 357 357 357 357 356 356 355 355 355 354 353 353 353 352 351 350 350 350 348 344 341 346 346 345 344 344
369 370 369 368 367 367 367 368 368 367 366 365 366 365 366 364 365 361 361 362 360 361 354 352 341 345 349 342 336 335 347 348 349 350 350 351 353 351 354 352 355 360 361 359 358 358 356 358 358 358 359 359 358 359 360 358 357 357 358 358 358 358 357 356 356 355 355 355 354 354 353 353 352 350 350 350 349 348 345 344 342 345 345 343 343
367 368 368 368 368 367 367 366 369 369 367 365 366 364 366 365 364 364 362 355 355 357 358 352 348 345 336 337 339 336 331 336 340 346 348 348 349 348 352 352 354 359 362 358 354 359 359 359 358 357 358 358 358 358 358 358 355 357 358 358 357 357 356 357 357 355 354 354 354 354 354 352 351 350 349 348 348 347 346 344 345 342 343 344 344
367 368 367 368 369 368 367 367 368 368 368 366 365 363 364 364 365 365 363 357 354 355 359 356 352 353 345 338 336 334 333 336 336 341 343 342 345 346 349 352 350 357 357 357 361 362 359 358 360 359 358 358 358 357 358 357 358 358 359 357 359 359 357 356 356 356 354 353 353 353 353 351 350 349 349 348 347 346 345 345 344 345 342 344 344
367 368 368 367 368 368 368 367 366 368 367 365 364 366 366 364 365 364 362 364 359 355 354 361 355 353 357 351 349 336 335 340 335 332 348 343 345 347 349 349 351 355 360 358 358 359 361 359 362 360 359 360 359 357 357 356 358 357 358 358 356 356 357 356 355 356 354 353 352 352 351 352 350 349 349 349 348 346 346 344 345 344 345 344 345
365 367 368 369 368 368 368 367 366 366 368 367 364 363 361 364 366 365 363 364 362 357 357 355 359 355 349 345 347 347 342 339 334 337 333 344 343 340 342 347 348 350 351 353 351 355 358 360 359 359 360 361 360 360 359 357 355 356 355 355 355 355 356 356 355 354 356 355 352 351 352 352 350 349 349 349 348 347 345 345 345 344 345 345 345
365 367 368 369 369 369 368 367 366 365 365 364 363 363 363 366 368 368 368 366 364 359 358 357 352 351 351 349 348 350 348 344 342 339 337 334 336 343 342 343 346 347 349 349 349 351 356 363 361 361 361 361 361 361 360 359 359 358 358 357 356 356 355 356 355 355 355 355 353 352 353 353 351 350 349 348 347 348 347 345 345 345 345 345 346
368 367 368 368 368 368 369 368 366 366 367 365 364 363 365 365 367 367 366 366 365 364 362 360 356 350 351 352 351 348 346 345 345 344 338 335 333 333 337 344 344 345 348 350 350 353 356 358 360 360 361 362 363 362 360 360 360 362 360 356 355 355 355 356 356 355 354 354 354 353 353 354 352 351 351 348 347 347 347 346 346 346 346 346 348
367 368 368 368 368 369 368 367 367 365 365 364 365 365 366 366 366 365 367 366 367 366 363 363 361 356 352 351 349 349 348 346 343 342 340 341 334 335 336 335 336 344 349 348 350 351 353 356 360 358 359 361 363 363 362 361 362 360 358 355 355 354 354 355 355 355 354 354 354 354 354 354 353 352 351 349 347 347 347 347 347 347 348 349 349
363 367 368 367 368 369 366 366 367 367 367 366 365 364 363 365 365 367 367 366 366 367 365 365 364 360 356 354 350 346 346 343 343 342 341 339 338 335 335 335 335 335 347 348 351 350 354 357 355 354 360 361 362 362 363 363 361 357 356 353 353 354 354 354 355 354 353 354 354 354 353 354 352 351 351 350 348 347 348 347 348 349 350 350 349
365 363 365 365 367 367 368 367 367 367 366 367 366 365 363 364 365 365 366 367 367 365 365 364 362 360 358 353 352 351 349 348 345 346 345 341 340 338 337 342 342 340 345 351 350 346 347 350 353 354 358 359 362 363 363 363 361 357 357 355 353 353 353 354 354 355 353 352 350 352 353 352 352 350 350 349 349 348 348 349 349 349 349 350 351
362 361 363 365 367 368 367 367 367 367 367 367 368 369 367 365 365 365 365 365 364 365 362 364 364 360 357 356 354 352 350 352 349 345 345 347 345 339 338 339 337 337 345 343 342 346 347 347 351 353 355 360 361 363 362 361 359 359 355 356 352 353 351 353 353 352 353 352 351 351 350 350 350 350 350 350 349 349 349 349 349 349 351 351 351
360 362 363 364 365 368 369 368 369 369 369 369 368 369 369 366 366 365 364 366 366 366 365 365 365 365 363 358 355 353 352 353 351 348 345 343 341 339 340 343 340 336 345 345 350 340 343 349 350 356 356 358 358 361 362 357 357 357 355 355 354 349 350 350 351 351 350 351 350 350 349 350 350 350 350 350 350 349 349 350 351 352 353 352 352
361 365 366 367 367 368 368 368 368 369 369 368 367 368 369 368 367 367 365 366 367 365 365 364 362 363 363 362 359 356 355 356 352 350 348 344 343 342 342 337 335 338 338 346 346 344 339 345 350 350 357 360 360 361 362 360 356 357 355 358 359 351 348 348 348 348 348 349 349 349 349 349 349 349 350 350 350 350 350 350 351 351 352 351 352
365 366 366 366 366 367 368 367 369 368 368 368 368 366 368 366 366 366 365 366 367 367 365 365 363 364 362 363 362 358 358 356 354 352 350 349 347 347 346 342 337 333 337 338 341 342 345 343 348 352 355 358 359 360 360 356 356 355 355 358 360 359 350 347 346 345 345 346 347 347 347 348 347 347 348 349 350 350 350 350 350 350 351 351 351
363 364 364 366 366 367 366 365 367 368 368 368 367 368 369 367 365 366 365 365 367 367 366 364 366 362 362 362 361 361 361 359 356 354 354 354 351 349 347 342 344 338 334 335 338 339 344 341 339 356 354 358 360 357 358 359 355 354 357 358 359 362 352 344 344 343 343 344 344 345 346 347 346 345 346 347 347 348 349 349 349 349 350 349 349
361 361 363 364 365 366 366 366 367 367 367 367 368 368 369 366 367 368 367 368 367 368 368 366 366 366 364 362 362 360 362 359 357 355 356 356 351 350 348 347 348 341 340 336 337 343 342 346 342 342 358 358 358 358 358 358 353 354 356 358 358 359 346 344 343 342 342 342 342 341 343 344 345 344 343 342 343 345 346 347 348 348 348 348 348
361 362 363 362 363 364 366 365 367 367 367 367 368 368 369 366 366 365 367 368 365 365 367 366 366 367 366 363 363 361 362 360 358 355 355 355 352 351 350 351 350 347 344 343 336 342 345 342 345 344 345 356 349 349 354 357 355 352 354 357 359 352 346 350 342 341 340 339 338 338 339 340 340 340 339 339 339 341 342 344 345 346 347 346 347
358 360 361 360 362 362 362 362 362 364 365 365 366 367 368 366 365 364 365 366 364 363 364 366 365 365 366 364 364 363 362 360 359 357 355 355 354 352 352 351 351 350 348 345 341 339 348 344 345 350 349 349 355 352 353 354 354 350 354 355 358 351 354 353 346 341 339 338 337 337 336 335 335 337 338 338 339 340 342 342 342 343 343 343 343
358 358 359 360 361 361 361 362 361 363 365 365 366 367 367 366 365 365 365 364 363 363 364 365 366 366 366 364 364 365 364 361 360 359 357 356 355 352 353 351 348 351 348 346 342 342 348 353 348 346 350 349 348 354 352 352 355 355 350 354 357 355 355 354 355 345 340 337 336 336 335 335 334 335 336 337 338 339 340 341 341 340 339 338 339
359 357 359 359 361 360 360 361 363 363 365 367 364 365 365 365 365 364 363 363 362 362 363 363 366 365 366 365 364 365 365 362 361 359 359 357 355 353 353 351 349 350 351 347 345 344 343 349 350 353 350 351 346 356 351 350 351 355 355 354 354 355 355 355 354 354 343 338 335 333 333 333 333 334 334 336 336 337 337 337 337 336 336 336 335
359 358 358 358 360 361 360 361 363 363 365 365 365 364 364 365 365 364 364 364 364 362 362 364 365 366 364 365 363 364 364 362 362 361 360 358 358 356 355 355 353 352 353 351 347 345 345 345 351 349 349 354 349 350 356 354 354 355 354 354 352 353 354 354 353 351 343 338 335 333 332 332 333 333 333 333 334 334 334 333 332 332 332 331 330
356 358 359 358 360 362 360 361 362 362 363 363 363 364 364 365 365 365 366 366 365 364 365 364 365 365 364 364 363 363 364 362 362 362 361 360 358 357 356 357 357 355 355 354 351 348 347 345 350 350 351 350 351 355 354 354 351 352 353 353 355 353 353 354 354 352 346 337 335 333 332 332 331 331 330 331 331 330 329 329 328 328 328 327 328
356 358 359 360 360 361 358 359 361 361 362 363 363 362 363 364 365 364 365 366 366 365 365 365 364 365 365 363 363 365 365 362 362 361 362 361 359 358 356 357 356 356 355 354 353 351 348 346 347 352 355 353 352 352 353 349 350 352 355 354 352 353 355 353 351 350 343 338 336 334 332 331 331 330 329 329 329 328 327 327 326 326 325 325 325
356 356 358 358 359 360 360 360 361 362 363 363 363 363 361 363 364 364 364 365 364 365 365 365 365 365 364 364 364 365 364 362 361 362 363 362 361 359 358 357 357 356 355 355 354 352 350 348 349 348 353 351 352 354 356 354 349 347 348 352 355 355 353 351 349 348 350 349 350 348 338 335 333 329 330 330 328 327 326 326 326 324 323 322 321
356 356 356 358 359 360 361 361 361 362 363 363 363 364 363 363 364 364 362 363 364 364 365 364 364 364 364 364 364 364 364 363 362 362 363 363 362 361 360 359 359 357 355 355 354 353 351 350 350 351 350 352 352 349 353 356 353 349 346 345 346 351 356 354 352 352 351 349 346 341 343 344 341 340 330 326 326 326 326 325 325 323 323 321 319
356 356 356 356 358 359 360 361 361 362 363 362 363 364 364 363 363 363 363 362 362 363 364 364 363 363 363 364 362 364 364 365 364 364 364 362 363 361 361 361 359 357 355 354 354 352 351 350 349 348 350 350 352 353 353 353 349 348 349 347 344 346 348 353 355 351 352 351 349 348 343 340 339 337 330 329 328 328 327 327 327 328 325 322 320
356 357 357 357 358 359 359 360 361 361 360 361 361 362 362 362 363 361 362 362 362 362 363 362 363 363 363 363 363 363 365 363 355 354 356 356 362 361 362 362 360 358 356 355 354 352 351 350 349 351 349 349 350 350 349 349 348 346 351 353 348 348 348 347 347 353 351 346 346 345 346 348 348 349 349 349 348 338 335 330 333 333 329 323 321
358 358 358 358 357 357 358 360 360 360 360 360 352 338 344 361 363 361 361 363 363 362 362 362 362 362 363 363 362 362 354 351 347 342 338 338 341 353 361 362 358 357 356 355 353 352 352 350 349 349 347 347 348 350 349 350 352 353 351 351 347 347 349 346 345 347 351 347 345 346 349 352 348 348 350 350 352 350 348 345 342 338 334 328 325
358 359 358 357 357 357 357 358 358 358 359 358 338 332 333 336 356 362 361 362 363 363 361 362 362 361 362 363 364 364 358 350 352 338 337 335 335 334 336 342 351 359 357 354 354 354 351 350 350 350 348 347 349 351 350 350 351 350 349 351 349 347 344 340 338 345 352 351 350 348 348 354 352 348 350 349 350 351 350 349 339 334 329 328 326
359 359 358 357 358 357 357 357 357 357 358 342 332 331 331 330 337 359 361 361 361 361 362 361 361 362 361 361 362 363 364 364 364 363 348 336 332 332 331 332 334 337 341 354 355 353 354 352 350 350 350 349 350 352 350 349 350 350 351 350 347 344 340 339 340 340 352 351 348 346 345 353 353 349 348 349 350 351 350 342 335 332 330 327 326
358 358 358 357 357 358 357 357 356 357 358 339 331 329 329 328 328 342 358 360 359 359 360 361 361 362 363 362 362 363 364 358 360 363 365 364 338 330 330 331 331 330 330 331 334 352 357 354 352 351 352 353 352 353 353 353 354 350 351 347 347 343 342 341 342 342 348 356 349 345 342 348 351 348 346 350 351 352 350 338 332 331 329 327 326
357 357 356 357 357 358 358 357 358 358 358 340 328 327 326 326 327 332 357 358 359 360 361 361 361 362 363 363 362 362 364 365 365 363 364 365 366 363 356 352 352 347 332 327 327 327 336 350 353 352 355 357 352 355 357 356 354 351 349 346 346 345 344 345 348 348 350 355 347 344 342 345 349 348 346 349 351 353 353 343 333 329 328 326 325
356 356 356 356 357 358 357 357 357 356 356 335 325 323 323 322 324 328 356 358 358 360 361 362 363 362 363 364 364 362 363 364 365 364 364 364 365 364 363 361 361 361 360 356 349 348 347 345 347 350 353 355 356 358 360 359 357 355 350 347 348 348 348 349 347 348 347 351 350 346 339 345 350 347 346 348 349 351 354 339 332 329 327 325 324
357 357 357 357 356 357 357 357 355 356 356 332 325 322 321 321 323 342 354 358 358 358 360 362 362 364 364 363 364 364 364 364 355 340 348 364 364 362 359 360 360 361 361 352 342 343 353 354 353 352 352 354 340 356 357 355 356 352 346 348 350 348 345 342 341 344 345 351 352 347 343 343 348 346 346 349 350 349 352 353 336 328 326 325 324
355 355 356 356 358 357 357 357 356 356 357 339 322 319 318 318 324 350 354 356 358 358 359 361 362 363 364 365 364 363 363 364 350 332 332 341 362 361 360 360 360 359 358 361 341 330 330 328 329 331 330 329 326 324 322 322 340 347 346 342 341 344 340 337 340 343 345 351 353 352 346 343 348 348 347 349 350 348 350 351 353 332 325 324 322
353 355 356 357 357 358 357 356 356 356 357 344 320 317 316 316 329 352 355 356 357 358 359 361 362 363 364 357 362 364 363 363 341 329 329 341 360 360 361 359 358 356 358 360 363 363 327 324 324 325 325 326 326 324 323 321 322 334 341 334 341 346 341 339 337 341 345 349 351 354 348 343 347 349 346 348 349 351 349 350 351 347 332 323 320
356 358 358 357 357 358 357 357 347 352 357 347 320 318 316 314 330 354 356 356 356 357 357 358 361 361 363 359 353 351 356 354 335 328 325 338 360 361 360 359 355 355 357 362 363 363 365 361 351 339 338 333 338 343 345 327 323 333 340 343 345 343 339 340 341 342 340 344 352 356 345 345 346 348 348 344 341 346 350 350 350 351 351 351 342
Wind_Speed
2 2 2 2 2 2 2 2 1 1 1 1 1 1 2 2 2 2 2 1 0 0 0 0 1 1 1 0 1 1 1 1 1 1 0 0 1 4 5 3 3 3 4 4 4 5 5 5 5 5 5 4 4 5 5 4 4 4 4 4 4 3 3 3 3 2 2 3 3 3 3 3 4 5 5 6 6 7 8 8 8 8 9 10 10
2 1 1 1 1 2 1 1 1 1 1 1 1 1 1 1 2 2 2 1 0 1 1 1 1 1 1 1 1 1 1 1 1 1 1 1 1 3 6 4 4 4 3 3 2 3 5 5 5 5 5 5 4 4 4 3 3 3 3 2 3 3 2 2 1 1 1 1 1 2 2 3 4 4 5 6 7 8 8 8 8 9 9 9 11
2 2 1 1 1 1 1 1 1 1 0 0 1 1 1 1 2 2 1 1 1 1 1 1 1 2 1 2 1 2 1 1 1 2 2 1 1 2 3 6 5 5 4 3 4 4 4 4 4 4 5 5 4 4 4 3 2 2 2 2 2 2 1 2 1 1 1 1 1 2 3 4 4 5 6 7 8 8 8 8 8 9 9 10 9
2 2 2 2 1 1 1 1 0 0 0 1 1 1 1 1 1 2 1 1 1 0 1 2 2 1 1 2 1 2 2 2 2 1 1 1 1 2 2 3 5 5 5 5 4 3 4 4 4 3 4 4 4 4 4 4 4 3 3 3 2 2 2 2 2 3 3 2 3 3 4 5 5 6 7 7 6 8 8 9 9 9 10 9 10
3 3 3 2 1 1 1 1 1 0 0 1 1 1 1 1 1 1 1 1 1 1 1 2 2 1 2 1 1 1 2 2 1 1 1 1 1 1 2 2 1 5 5 4 5 4 5 6 5 5 5 4 4 5 5 5 5 4 3 3 2 4 6 4 3 5 4 3 3 3 4 6 6 7 6 6 7 7 7 8 9 9 9 9 8
3 3 3 2 2 2 2 2 1 1 1 1 1 1 1 1 1 1 1 1 1 1 2 2 1 1 2 1 2 1 2 2 2 1 1 1 1 1 1 2 2 2 3 7 7 5 6 6 5 7 5 5 5 6 5 3 5 5 3 3 4 3 4 4 4 5 5 4 4 4 5 5 6 6 6 6 7 7 7 7 8 8 8 8 9
3 3 3 3 3 2 2 2 0 1 1 0 1 1 1 1 1 1 1 1 2 2 2 2 2 2 2 1 1 1 2 2 1 1 1 1 1 1 1 1 2 2 2 2 6 5 5 5 6 5 5 6 6 5 5 3 5 5 3 3 5 5 5 6 5 5 5 5 4 5 5 5 5 6 6 6 6 7 7 7 7 7 8 9 9
4 3 3 4 3 3 2 1 1 1 1 1 2 1 0 1 1 1 1 2 2 1 1 2 2 2 2 1 1 0 0 0 1 1 1 1 1 1 1 1 2 2 3 2 2 3 4 4 4 5 5 5 7 7 4 3 4 6 7 5 6 6 5 5 5 5 5 5 5 5 5 5 5 6 7 6 6 6 6 6 7 8 8 8 9
4 4 4 4 4 3 3 2 1 2 1 2 2 1 1 1 1 2 2 1 2 2 1 1 1 1 2 2 2 1 0 1 1 1 1 1 1 1 1 1 1 2 3 2 3 2 4 3 4 4 5 6 6 7 6 4 5 7 6 5 5 5 5 4 4 4 4 5 5 5 5 5 6 6 6 6 6 6 6 7 8 8 8 8 9
4 4 4 4 4 3 3 1 1 1 2 2 2 1 1 2 1 2 1 1 0 0 3 1 1 1 2 3 2 1 1 1 1 1 1 1 1 0 1 1 1 1 2 2 3 2 3 3 5 5 7 7 7 7 5 6 5 5 7 6 7 5 6 5 4 4 4 4 5 5 5 6 5 5 5 5 5 6 7 7 7 7 7 7 8
5 5 4 4 4 4 3 2 2 2 2 3 2 1 1 2 2 2 1 1 1 3 4 2 3 2 2 3 2 1 1 1 1 1 1 1 1 1 1 1 1 1 2 2 2 2 3 4 3 3 4 5 6 6 5 7 6 6 6 5 5 5 6 6 5 5 5 5 5 4 5 5 4 3 3 5 6 6 6 6 6 6 6 7 7
5 5 5 4 4 4 3 3 3 2 3 4 3 3 2 2 1 2 3 1 2 3 4 2 3 3 2 2 2 1 0 1 1 2 2 2 2 1 0 1 1 1 2 2 2 2 2 3 3 4 4 4 5 5 6 6 7 6 6 6 6 6 6 7 5 6 6 5 4 4 4 3 2 3 4 5 7 5 4 5 5 5 5 6 6
5 5 5 4 4 3 3 3 3 3 3 4 4 3 2 2 1 1 2 2 4 5 2 2 3 2 1 1 1 1 1 1 1 1 1 1 1 1 1 1 1 1 2 1 2 2 2 3 3 3 4 4 4 7 6 6 6 6 6 6 7 7 6 7 7 5 5 5 5 3 0 2 1 2 2 4 5 5 4 4 4 4 4 5 5
5 5 5 5 4 4 4 4 4 3 4 4 3 3 3 3 2 2 1 2 1 1 2 3 2 3 2 1 0 1 1 0 1 1 1 1 1 1 1 1 1 1 1 1 2 3 3 3 3 3 3 4 4 4 4 5 6 4 5 6 7 7 7 6 6 6 5 5 4 1 2 3 4 2 1 3 4 4 3 3 3 4 4 4 4
6 6 5 5 5 4 4 4 4 4 4 4 4 4 4 4 3 3 1 1 1 1 3 4 2 0 1 2 1 2 1 1 1 1 2 2 2 2 1 2 1 1 1 2 2 2 2 3 3 3 3 4 4 4 4 4 5 4 5 6 7 7 7 6 6 6 6 5 4 2 4 6 3 2 2 3 3 3 3 3 2 3 3 3 3
7 7 5 5 5 5 4 4 4 4 4 4 4 5 4 4 4 3 2 3 3 2 3 3 2 3 3 1 1 2 2 3 3 1 2 3 3 3 2 3 2 1 2 3 2 2 2 3 3 4 4 4 4 4 4 4 5 5 8 8 8 7 6 6 6 6 5 4 4 4 5 5 3 3 3 3 3 4 4 3 3 2 2 2 2
7 7 7 6 6 5 5 5 5 5 4 5 4 5 4 4 4 3 4 4 3 2 2 3 3 2 1 2 2 3 3 1 3 2 3 3 4 4 3 4 4 2 3 3 2 3 3 3 3 3 4 4 5 5 5 5 4 4 5 6 5 3 8 6 5 6 6 5 1 4 5 4 3 3 4 4 4 5 5 4 4 4 3 3 2
7 7 8 6 6 6 6 5 5 5 5 5 5 4 4 5 4 4 4 4 4 3 3 2 3 2 1 2 3 4 1 2 3 1 1 3 4 4 4 5 4 4 3 4 4 3 3 3 4 4 5 4 4 4 5 4 5 4 4 3 2 4 3 6 6 7 7 6 5 4 5 5 4 4 5 5 5 6 6 6 5 5 4 4 3
8 8 8 7 7 6 6 6 6 6 5 5 5 6 6 5 4 4 4 3 3 4 4 2 2 4 4 3 1 1 2 1 2 3 4 1 3 5 5 5 6 6 6 6 6 5 3 3 4 4 4 4 4 4 4 4 5 5 5 5 5 6 5 5 6 6 6 8 5 5 6 6 6 6 6 7 7 7 7 7 7 6 6 5 5
8 8 8 8 7 7 7 6 6 6 6 6 7 6 5 4 4 4 3 3 3 4 4 3 4 3 4 4 4 1 1 3 2 4 4 5 3 2 4 6 6 6 7 7 6 6 4 3 4 4 4 4 4 4 4 4 4 4 5 5 6 6 6 5 6 6 7 8 7 6 7 7 8 8 8 8 9 8 9 8 8 8 7 6 6
8 7 8 8 8 7 7 7 7 7 6 7 7 7 7 6 5 4 5 4 4 4 4 4 4 4 3 5 4 4 3 2 1 2 4 5 6 5 4 2 4 6 6 6 6 5 5 5 4 5 4 4 4 4 4 4 4 4 5 6 7 7 6 5 6 8 8 8 8 8 8 9 9 10 10 10 10 10 10 9 9 9 8 7 7
7 7 7 8 8 8 8 8 8 7 7 7 7 6 6 6 6 6 5 5 4 4 5 4 4 4 4 3 4 3 3 3 4 4 4 4 6 7 5 5 5 3 3 5 6 6 6 4 5 6 5 4 3 3 4 4 4 4 4 5 7 7 7 6 7 8 9 10 10 10 10 10 11 11 11 11 11 11 11 10 10 10 9 9 8
7 7 8 8 8 8 8 8 7 7 6 7 7 7 7 7 6 6 6 7 5 5 5 5 4 4 4 3 4 5 4 5 5 4 5 4 5 7 7 6 6 7 2 1 2 4 4 4 6 6 5 5 4 4 3 4 4 5 3 5 7 8 8 8 8 10 9 9 10 11 11 11 12 12 12 12 12 12 12 11 11 11 10 10 9
7 7 8 9 7 7 8 7 6 6 7 6 6 6 6 6 6 6 6 7 6 6 5 5 6 4 6 5 5 5 5 5 5 4 4 5 5 6 7 5 5 6 3 3 5 6 5 5 6 6 5 5 5 4 3 4 5 6 6 8 9 9 10 10 10 10 10 11 10 11 11 12 12 12 13 13 13 13 12 12 12 12 11 11 10
8 8 8 9 7 7 7 7 6 6 6 6 6 6 6 6 6 7 7 7 6 6 6 6 6 6 5 5 5 6 5 5 5 5 4 3 4 5 7 5 6 7 3 3 4 2 4 5 5 5 5 5 5 4 5 5 5 6 9 7 9 10 10 11 11 11 11 12 12 11 12 11 11 10 11 11 13 13 13 13 13 12 12 12 11
9 9 8 9 8 8 7 8 7 7 7 7 7 6 7 6 7 7 8 7 6 7 7 7 6 6 5 5 5 5 6 5 4 4 5 5 5 6 6 4 6 7 3 2 2 4 3 4 4 4 5 5 5 5 5 6 6 7 10 7 8 11 11 11 12 12 12 13 13 13 13 13 13 12 11 12 12 13 13 13 13 13 13 13 12
9 8 8 8 8 7 8 8 7 7 7 7 7 7 7 6 6 7 7 6 7 7 6 7 7 7 6 5 5 5 5 4 5 5 5 6 6 6 5 6 7 6 6 3 4 6 8 5 3 4 5 5 5 5 6 6 7 6 9 7 7 10 12 13 13 13 14 14 14 14 14 14 14 14 14 14 13 15 15 14 14 14 14 13 11
8 7 8 8 8 8 8 8 8 8 8 8 8 7 7 7 6 7 8 6 6 8 7 7 8 8 8 6 5 6 5 5 5 5 5 5 5 5 4 5 6 8 6 7 5 5 4 4 3 4 4 4 4 4 5 7 8 8 9 7 7 7 12 14 14 14 14 15 15 15 15 16 16 16 16 15 15 15 15 15 15 14 14 14 14
8 8 8 8 8 8 8 8 8 8 8 8 8 8 7 7 7 7 8 7 7 7 7 7 7 7 7 8 6 6 6 4 4 4 4 3 4 4 4 5 5 6 7 8 7 6 3 2 4 1 2 3 3 4 4 6 8 8 7 8 8 8 10 14 15 15 15 16 16 16 16 17 17 17 17 17 17 17 18 17 16 16 16 15 15
8 7 8 9 8 9 8 8 8 8 9 8 9 9 8 7 7 7 7 7 7 6 6 7 7 6 6 6 6 6 6 5 5 5 4 4 4 4 5 5 5 6 6 7 9 6 6 4 4 2 2 2 3 4 5 6 7 8 8 9 9 10 13 13 14 15 16 16 17 17 17 17 18 18 18 18 19 19 19 19 18 18 17 17 16
8 8 8 9 9 9 9 9 8 9 8 9 8 8 8 7 7 7 7 7 8 8 7 7 6 6 6 6 5 6 5 6 5 5 4 4 5 4 4 4 5 6 6 6 9 6 3 4 3 3 3 2 3 3 4 5 6 8 9 9 10 13 13 11 14 16 17 17 17 17 18 18 18 18 18 19 19 19 19 20 20 19 19 18 17
10 10 10 10 10 10 10 10 10 9 9 9 9 8 8 7 7 7 7 8 9 9 8 7 6 6 6 7 7 6 5 5 5 5 5 5 5 5 5 5 5 6 5 6 8 12 5 5 5 5 6 5 4 5 6 5 5 9 9 9 10 10 9 11 15 17 18 18 18 18 18 19 19 19 20 20 20 20 20 20 20 20 19 19 18
10 11 11 11 11 11 11 10 11 10 9 9 8 7 8 8 8 8 8 9 9 9 8 9 8 7 7 7 8 7 6 6 6 5 5 5 5 5 5 5 6 5 6 6 8 11 9 5 5 6 4 3 6 5 7 6 6 7 10 10 10 9 9 9 10 14 18 18 19 19 19 20 20 21 20 20 20 21 21 21 21 20 20 19 19
11 12 12 11 10 11 11 11 11 10 9 9 9 8 8 9 9 7 8 10 10 10 9 10 9 7 7 8 8 8 7 8 7 7 6 6 6 6 6 6 6 6 6 6 7 8 13 6 5 4 6 5 7 6 6 7 8 7 8 8 8 9 9 9 9 10 14 17 19 20 21 21 21 21 21 21 21 21 22 22 22 21 20 19 19
11 12 12 12 11 11 11 11 10 10 10 9 9 9 9 10 10 9 9 9 10 10 10 10 8 7 8 8 8 8 6 7 7 7 6 6 6 6 7 6 7 7 6 7 7 9 11 11 7 8 6 5 7 7 6 6 7 7 8 8 8 7 8 9 9 10 11 15 18 20 21 21 22 22 22 22 22 22 22 22 22 21 20 20 20
12 11 12 12 11 11 11 11 11 10 10 10 10 10 10 10 10 10 9 9 10 10 10 9 9 8 9 8 9 8 7 8 7 7 6 6 6 6 7 7 7 7 6 6 8 8 9 11 10 7 7 6 7 7 6 6 7 7 7 8 8 9 9 8 10 11 11 14 17 19 20 21 21 21 21 22 21 22 22 23 22 21 21 21 21
13 12 11 12 11 11 11 12 12 12 12 11 11 11 10 9 10 10 10 10 10 11 10 9 8 8 8 9 9 7 8 8 8 8 7 8 6 6 7 7 7 6 6 6 7 7 8 11 11 8 7 7 7 8 7 8 8 8 9 10 10 10 10 11 10 10 13 14 15 17 18 20 21 21 21 21 22 22 22 23 23 22 22 23 23
14 13 13 12 12 12 13 13 12 12 11 11 11 11 11 11 10 10 10 10 10 10 10 10 9 9 9 9 9 8 8 9 9 8 7 8 6 7 8 8 7 6 7 7 7 8 9 10 10 11 7 8 8 7 6 6 7 9 9 10 10 10 10 11 12 10 8 8 7 10 15 18 21 22 21 22 23 22 22 23 23 23 23 24 23
14 14 13 14 12 13 13 13 13 12 12 11 11 11 11 11 11 11 11 11 11 10 10 10 10 10 10 10 9 9 10 10 10 9 8 7 7 8 8 9 8 7 7 7 7 8 9 9 10 10 10 8 8 10 7 6 7 8 10 10 10 9 8 9 10 8 8 10 14 18 17 14 13 13 18 23 23 21 22 23 23 24 25 23 21
15 15 15 14 13 13 13 13 13 12 11 11 11 11 11 12 11 11 11 11 11 11 10 10 10 10 10 10 10 10 11 11 10 9 9 8 7 8 8 8 8 8 8 7 7 8 9 9 10 10 9 9 7 8 7 6 8 9 9 9 11 9 8 8 8 8 5 10 14 13 11 13 15 18 18 16 18 19 23 23 24 25 25 22 22
13 14 14 14 13 13 13 13 12 12 12 12 11 11 12 12 12 12 12 12 11 11 11 11 10 11 11 10 10 11 11 11 12 10 10 8 7 8 8 8 8 8 8 8 8 9 9 10 10 9 9 10 10 9 9 8 9 11 7 6 9 9 9 10 11 6 6 13 11 11 11 9 9 10 9 10 11 17 19 23 21 24 24 22 23
13 12 13 13 13 13 13 13 13 11 11 11 12 16 13 11 11 10 10 11 11 11 10 10 11 11 11 11 10 12 11 12 12 14 14 13 13 12 9 9 10 10 9 9 10 10 9 10 10 9 11 11 11 10 10 11 10 9 9 8 9 9 8 11 13 4 7 10 11 11 11 7 9 11 10 11 9 11 11 13 14 17 19 23 25
14 13 13 14 14 13 14 14 14 12 12 11 15 15 16 15 12 11 11 10 10 11 11 11 11 11 11 11 11 10 11 12 13 15 14 15 16 16 15 14 13 12 12 12 12 13 12 13 12 11 11 13 13 11 10 9 9 10 9 5 7 9 9 10 12 5 8 9 9 11 12 8 8 11 11 11 11 10 12 14 18 21 23 21 21
12 12 13 14 14 14 13 14 14 14 13 14 15 16 17 17 15 12 11 10 10 11 11 12 11 10 11 10 10 9 10 12 11 10 13 16 16 16 17 17 17 17 16 14 14 14 13 13 14 14 12 12 12 9 8 7 9 9 6 6 7 9 11 12 9 12 2 6 7 10 15 8 10 11 13 11 11 12 14 16 19 20 21 22 18
13 14 14 14 15 14 14 14 14 15 14 14 16 17 17 17 18 15 12 11 11 11 11 12 12 11 10 10 10 9 8 11 10 11 10 10 14 19 18 16 16 17 19 20 20 16 13 16 17 18 15 11 11 7 5 8 8 10 8 6 7 10 10 10 12 12 7 6 6 10 16 12 10 13 14 11 11 13 15 18 21 20 20 21 16
13 13 15 16 14 14 14 14 14 14 14 13 17 18 18 18 18 15 13 14 13 12 13 12 11 12 11 10 10 10 10 9 9 11 11 11 10 9 10 10 11 15 18 21 21 22 19 15 16 18 13 9 12 9 4 3 7 10 8 9 9 11 11 11 12 11 11 5 8 10 17 17 8 13 16 13 11 12 13 17 18 19 21 21 22
14 14 15 15 14 14 14 14 13 13 14 15 15 18 18 18 18 15 12 13 13 13 13 13 13 12 12 11 11 12 10 10 10 10 11 11 11 11 13 14 13 13 12 13 14 13 13 12 14 17 18 15 14 11 6 8 10 9 8 13 9 10 11 13 16 13 15 10 12 12 18 18 10 12 15 14 12 13 13 15 18 19 21 21 20
12 12 13 13 14 15 15 15 15 15 14 15 16 17 18 17 17 11 11 12 14 14 13 13 13 12 12 12 11 12 11 11 11 14 13 11 11 13 14 14 14 15 14 14 14 12 12 12 13 15 15 16 12 10 8 7 6 3 10 10 6 12 17 17 18 17 19 13 12 13 15 17 14 12 16 14 12 15 14 12 14 18 20 19 18
13 13 13 14 13 14 15 14 15 14 14 14 16 17 17 17 13 10 11 11 12 14 14 13 12 12 12 12 12 11 11 12 12 15 16 13 12 14 15 15 14 14 15 13 13 18 19 19 21 21 21 20 15 13 12 8 5 7 12 13 17 13 14 15 17 18 19 13 9 11 14 17 14 12 15 13 14 14 17 13 10 13 18 19 19
14 14 13 13 13 13 15 16 15 15 15 12 17 17 17 18 16 11 10 11 13 13 13 13 12 11 13 15 13 13 13 12 13 15 15 12 12 13 14 15 16 16 16 14 11 8 17 21 22 19 17 16 21 22 18 13 13 11 12 15 15 9 12 13 16 17 16 16 11 10 12 17 15 15 16 15 14 12 16 14 11 11 12 16 20
14 12 12 12 13 13 14 16 15 16 15 12 17 18 19 20 17 11 11 11 12 13 12 12 12 11 11 11 15 14 13 13 14 14 15 13 12 13 14 14 16 16 15 12 12 14 12 8 6 7 8 14 15 13 12 17 18 19 15 16 12 13 13 15 14 14 16 16 10 2 10 14 15 15 13 11 12 10 12 11 11 10 10 7 9
Wind_Direction
152 136 140 142 145 143 143 128 118 113 124 111 54 56 64 60 59 54 59 52 20 133 63 259 278 242 284 190 203 154 163 182 169 165 207 167 181 151 173 191 205 211 177 178 203 166 165 157 154 148 142 140 133 131 133 127 126 126 123 126 116 111 100 92 76 82 59 42 30 17 7 11 4 358 350 349 352 351 353 354 358 356 356 356 357
162 141 165 156 166 166 163 155 151 141 201 109 80 55 51 45 56 52 58 69 72 63 310 359 296 324 267 275 248 245 152 201 184 186 172 209 179 149 164 199 210 202 206 190 229 227 180 171 164 162 158 157 151 149 143 139 136 135 141 127 138 123 128 114 135 93 98 94 33 356 355 346 349 352 346 346 348 347 347 352 351 358 357 356 1
179 182 190 182 175 190 184 163 207 172 186 140 89 35 36 23 19 19 44 48 37 32 325 334 335 292 277 265 245 229 217 192 200 184 190 177 189 194 170 194 211 202 220 204 232 253 249 189 171 180 169 169 175 165 171 167 166 165 176 177 171 181 164 175 201 241 315 346 311 325 328 329 330 330 338 347 344 344 348 351 1 357 358 2 1
220 209 214 194 193 189 192 229 238 276 314 351 12 23 11 22 29 10 30 12 38 14 325 302 309 314 267 252 243 239 203 194 228 170 207 145 198 194 212 188 193 214 210 226 222 225 289 282 229 194 202 194 191 193 195 197 193 204 212 218 228 220 226 245 258 272 283 311 300 325 338 326 321 326 332 342 334 347 353 352 354 360 358 6 5
229 231 229 223 207 240 239 253 259 282 297 341 317 335 320 345 41 72 11 19 333 336 271 273 283 310 292 263 246 220 206 194 209 194 212 162 183 216 217 221 187 187 197 219 230 214 217 249 249 225 216 221 221 217 222 218 217 220 235 253 277 2 326 291 300 291 288 304 345 341 317 319 333 332 342 327 347 345 2 2 360 5 8 17 21
244 239 244 240 233 232 254 248 252 293 322 305 300 345 348 341 30 326 27 1 308 324 298 287 294 290 288 290 248 231 201 209 193 172 177 208 104 210 228 219 226 209 181 186 218 215 223 255 263 257 239 226 233 234 236 245 265 261 287 305 271 219 236 286 280 284 295 305 302 291 308 321 329 333 334 355 355 358 9 15 13 21 29 33 34
239 250 245 253 246 237 241 250 282 304 287 343 312 332 334 21 17 339 17 328 321 323 303 303 310 327 355 332 287 174 210 207 179 155 168 124 166 206 231 254 252 270 226 205 187 200 229 244 250 264 255 256 245 244 250 251 257 265 264 256 274 265 251 256 267 287 295 298 301 313 318 328 333 339 342 358 2 3 16 20 32 44 39 38 34
235 233 249 244 247 245 240 246 228 262 269 310 286 274 22 342 32 335 335 354 323 290 292 296 314 336 29 25 61 42 191 177 175 201 100 151 173 163 218 234 254 274 308 286 260 168 204 235 249 260 280 276 273 267 246 239 285 319 285 260 267 284 285 289 280 282 294 299 307 314 320 328 333 338 342 357 7 26 34 44 52 49 39 35 33
226 225 241 247 245 249 245 230 213 236 238 248 268 302 307 325 48 34 30 13 352 321 254 226 217 345 31 44 60 71 62 98 145 101 81 287 209 202 198 209 231 257 258 267 288 289 176 210 263 268 276 275 278 273 277 251 225 212 263 266 273 279 284 283 294 296 293 298 304 308 320 327 339 343 350 4 22 47 57 57 58 50 45 42 43
219 220 232 247 251 254 263 219 227 232 242 257 278 311 323 316 5 68 40 39 314 314 257 98 29 6 17 24 35 38 71 123 126 164 181 177 217 266 271 289 235 243 276 294 298 289 283 203 220 252 248 252 255 273 289 277 258 249 248 248 253 256 267 264 258 267 271 280 294 311 319 333 340 353 2 13 54 68 70 62 53 53 55 51 48
217 212 224 234 236 237 242 210 216 216 233 251 253 263 297 302 321 86 31 9 21 352 327 31 59 20 17 26 40 38 33 114 166 169 168 165 107 166 215 214 249 230 257 264 257 266 275 290 276 258 240 207 260 266 255 266 279 262 259 269 274 257 269 269 258 270 271 272 286 308 325 339 356 6 21 48 77 75 67 64 66 66 65 57 51
214 212 217 227 235 228 218 198 206 209 222 238 234 221 221 253 112 265 136 108 37 304 234 100 50 34 22 49 51 42 101 130 166 164 173 174 162 207 235 166 220 255 257 255 274 288 287 286 283 273 262 224 220 260 262 266 266 272 265 257 264 263 265 276 259 244 266 280 297 308 329 335 2 44 59 79 100 88 72 79 87 85 76 67 60
220 212 217 219 230 226 206 206 205 209 220 236 238 243 231 247 179 230 224 209 169 201 165 202 185 201 116 52 70 50 107 143 171 200 192 193 167 193 184 227 219 225 247 273 289 293 290 284 281 279 278 285 237 208 236 264 269 263 263 266 263 263 263 264 274 274 273 278 287 304 200 256 66 81 78 108 107 101 98 100 103 97 88 82 73
218 210 213 214 213 208 204 206 201 210 222 234 239 239 231 220 199 201 220 259 265 237 163 188 215 250 254 251 136 135 86 224 205 207 242 228 224 203 192 247 249 234 222 227 255 266 278 283 282 282 287 282 282 282 254 234 234 229 275 270 269 270 265 259 266 269 269 265 276 284 201 147 138 121 151 132 123 111 124 145 135 111 105 99 91
215 206 206 209 213 207 205 201 207 210 215 224 231 232 233 232 223 242 213 191 259 187 186 252 280 249 52 261 240 243 143 281 236 259 258 256 259 258 255 268 248 226 223 236 231 243 258 275 281 283 286 279 279 275 269 271 276 281 252 249 262 270 277 272 261 259 255 262 262 208 202 181 175 186 174 164 152 137 145 147 150 150 130 115 112
211 206 206 204 204 208 205 201 203 207 220 226 226 236 231 232 238 234 238 264 237 194 199 210 276 182 215 272 26 303 258 224 270 258 257 265 264 270 243 269 256 227 228 251 242 217 225 234 251 267 265 271 273 269 270 275 284 267 259 259 246 236 250 264 279 273 265 255 236 187 177 190 187 190 195 170 171 179 185 173 169 183 175 150 148
208 206 207 203 202 206 205 206 206 205 214 224 230 240 239 244 240 242 239 255 266 243 200 213 217 281 217 171 173 218 263 10 304 285 251 241 236 249 250 265 271 256 264 275 243 232 232 213 218 235 246 249 252 256 266 269 267 264 260 249 260 241 219 235 259 265 256 254 164 161 171 171 197 192 195 188 190 193 188 194 192 193 198 199 200
206 205 207 204 202 205 206 208 212 208 214 230 235 234 237 242 232 244 248 238 265 280 264 198 230 197 265 327 340 343 340 16 298 323 352 269 260 257 259 261 261 256 257 257 242 234 218 231 208 218 223 226 226 240 258 263 260 258 257 258 249 280 268 219 241 258 258 249 246 237 230 203 200 208 201 206 200 201 200 201 206 204 206 210 216
207 203 205 204 204 202 205 210 213 216 213 223 230 234 238 228 224 227 244 245 225 260 264 245 194 206 203 228 231 285 302 240 311 315 296 219 259 255 239 239 250 256 255 256 255 245 235 232 232 231 217 216 221 231 242 251 255 254 267 274 262 260 258 216 224 240 255 269 230 232 223 208 206 211 212 213 213 206 210 209 211 214 212 217 222
209 197 200 201 202 203 203 210 213 219 217 225 233 236 237 225 213 224 224 227 236 251 273 262 247 239 227 229 222 193 329 295 291 303 301 300 282 233 247 248 246 251 258 259 258 258 253 233 238 232 231 219 217 226 238 244 256 254 245 211 234 242 238 233 234 232 248 255 241 232 229 220 216 213 213 216 216 217 213 216 215 216 221 224 229
210 202 197 201 200 203 201 206 211 214 212 227 230 230 229 232 213 205 214 219 223 237 248 260 261 265 208 225 233 239 234 239 218 241 274 290 285 275 270 212 250 251 250 257 260 259 248 248 245 250 248 233 222 223 230 238 234 233 236 202 217 227 232 228 216 242 248 245 241 238 234 227 219 218 214 215 218 219 220 220 222 225 229 233 237
207 209 202 204 206 204 203 207 211 215 215 226 228 222 222 227 231 233 229 228 222 223 233 244 255 266 248 235 215 214 230 234 239 237 241 241 272 290 293 287 278 252 218 245 256 259 261 258 246 247 245 245 228 220 227 230 233 236 228 196 217 223 232 229 213 231 243 239 238 242 240 228 225 221 220 219 218 222 225 227 228 231 237 242 243
209 205 209 209 210 209 212 210 212 210 211 219 223 225 224 224 229 232 236 236 231 231 231 235 234 238 227 218 232 239 243 254 256 257 260 258 264 280 279 271 291 304 282 312 292 271 257 252 254 255 246 244 239 232 230 235 225 234 226 218 223 223 225 232 230 232 235 235 236 237 240 234 228 226 225 223 223 223 226 228 232 236 241 244 247
211 214 211 212 208 211 216 216 209 208 212 216 226 225 232 228 227 230 234 235 242 244 246 238 240 237 240 227 227 246 250 251 260 247 241 270 284 288 291 297 285 265 268 264 249 256 253 248 245 249 241 242 235 228 229 231 238 207 225 223 222 225 224 229 234 227 223 226 228 235 239 240 235 232 230 229 229 229 229 230 232 237 241 245 251
211 216 215 208 204 207 210 212 211 209 214 215 217 219 224 231 232 229 233 233 233 234 237 239 238 246 243 237 234 243 246 247 257 264 262 260 257 277 287 297 286 289 289 314 295 274 251 248 243 240 237 231 229 218 224 234 248 194 208 241 214 224 225 230 231 233 229 227 229 230 234 239 243 239 235 235 235 236 235 236 237 239 242 248 254
213 213 214 208 209 209 207 213 213 209 204 209 213 213 214 225 228 230 232 233 235 236 242 248 248 247 253 251 236 233 243 239 237 241 249 242 247 263 286 281 280 288 288 274 249 288 251 215 231 229 235 235 233 223 219 234 244 188 199 244 216 214 225 226 230 233 231 232 231 233 235 235 236 236 235 236 237 240 242 243 244 246 247 249 252
212 211 204 205 209 208 210 214 214 211 207 208 210 210 210 218 227 232 236 231 231 233 239 242 242 239 236 236 251 248 242 233 242 242 256 258 264 274 277 286 288 283 282 251 256 242 272 280 237 228 220 222 224 224 225 228 238 193 191 221 251 222 216 222 228 229 231 231 233 234 234 235 237 237 236 236 236 238 241 241 244 246 249 251 253
207 203 203 206 210 213 211 215 213 212 210 209 209 211 205 212 220 226 233 227 226 226 237 241 239 238 239 237 236 254 242 243 240 245 241 253 261 265 256 261 276 291 297 295 283 277 240 256 255 236 236 231 230 233 236 241 245 201 197 236 239 235 213 220 224 228 230 231 232 233 233 234 235 237 238 239 238 237 238 239 240 242 243 245 246
207 205 208 205 210 212 216 218 212 212 211 209 209 210 205 210 219 220 228 229 227 228 233 237 242 242 239 229 229 245 246 233 239 242 236 237 241 241 242 250 254 273 291 296 293 298 286 235 301 129 203 229 228 232 229 234 241 230 233 229 234 242 223 215 223 227 229 231 233 233 233 234 234 234 236 237 238 238 238 239 239 241 243 244 245
206 205 202 205 208 209 216 217 216 213 215 213 210 210 208 217 219 221 226 228 235 234 230 237 240 239 242 238 222 235 232 229 233 235 223 223 230 229 231 233 236 252 270 287 293 287 284 255 252 251 160 208 210 217 232 238 228 218 235 237 237 239 237 222 225 228 230 231 232 233 233 234 234 235 234 234 235 237 238 239 240 240 242 244 246
193 195 199 207 208 210 213 219 215 216 213 216 210 210 208 219 220 225 221 221 237 240 234 233 235 230 230 234 222 233 231 235 238 233 221 218 230 233 236 231 229 235 253 265 284 283 213 275 264 254 266 215 242 248 232 236 227 222 237 240 240 242 243 240 233 233 233 233 233 233 233 233 234 234 234 233 234 235 236 238 239 240 241 243 244
200 198 203 208 210 213 215 219 222 220 216 216 213 211 211 218 224 229 224 220 231 237 236 228 225 221 226 232 227 228 224 226 232 228 217 217 224 230 229 228 231 230 237 251 256 274 260 271 277 270 257 259 220 239 244 242 230 209 237 238 242 246 246 248 239 233 236 236 236 236 235 235 235 235 234 235 235 235 236 237 238 239 241 241 242
198 199 202 206 208 212 219 220 222 220 216 214 209 209 212 218 220 228 233 234 233 238 233 236 227 216 222 230 234 231 221 227 231 232 226 213 213 222 223 224 233 224 220 232 252 273 279 249 255 271 267 266 262 221 245 246 242 228 228 239 243 244 242 243 247 232 228 233 237 238 239 238 238 237 237 236 236 236 237 237 237 237 238 239 240
198 203 204 207 208 211 215 219 219 220 217 212 212 209 214 217 219 217 224 228 233 239 240 240 232 231 219 224 234 234 223 227 236 236 233 231 222 227 218 221 229 227 205 229 248 261 279 270 259 232 245 205 263 226 237 256 257 239 237 235 236 235 239 243 245 249 221 223 230 235 238 239 239 239 239 239 239 238 237 238 238 237 236 236 237
203 207 208 208 206 205 211 216 216 218 218 218 216 217 218 217 218 221 221 220 223 229 228 229 227 222 229 227 233 232 227 230 233 239 238 232 234 239 241 232 234 237 217 213 242 259 270 278 268 268 261 232 242 263 244 247 254 252 257 252 245 239 234 236 246 255 234 217 227 232 235 238 238 239 239 239 240 240 241 240 238 236 235 234 234
206 205 208 209 205 202 206 211 213 216 216 217 217 217 220 219 220 221 221 222 225 228 229 231 225 220 227 233 237 234 230 233 238 241 233 224 223 230 240 239 236 240 235 214 222 250 268 279 279 270 270 268 269 260 255 251 260 258 252 261 253 252 249 241 238 246 246 224 224 231 235 238 239 239 239 240 240 240 241 241 239 236 234 233 232
210 204 204 206 207 203 208 210 212 213 215 214 216 222 223 222 222 224 224 224 227 230 232 233 229 226 229 234 240 233 227 236 241 239 236 223 220 228 239 241 237 236 232 229 230 231 250 261 274 270 268 266 264 266 263 271 273 263 254 249 255 255 249 249 252 248 249 237 232 235 238 239 241 240 239 239 238 238 239 241 240 238 235 233 231
208 209 204 203 206 206 209 211 211 212 211 212 214 218 222 223 222 224 226 227 229 230 231 232 229 226 232 235 234 230 231 237 246 245 239 231 222 229 239 243 242 235 232 234 231 235 242 255 263 276 261 265 273 264 263 242 260 273 271 265 258 243 243 255 252 252 255 254 249 234 231 238 241 241 241 239 238 237 238 241 240 239 238 235 233
207 209 209 207 206 207 208 210 213 212 211 211 213 214 218 221 222 223 227 229 232 232 233 232 232 230 231 233 232 228 232 236 243 246 243 239 230 235 234 239 241 238 239 240 232 236 242 253 260 260 272 265 255 269 263 241 252 255 268 276 269 254 243 243 258 254 257 263 250 239 242 244 242 238 231 233 238 237 239 241 241 240 239 237 236
209 211 211 209 207 207 210 211 213 213 212 212 212 213 214 216 219 222 223 228 231 232 235 233 233 234 232 232 232 230 231 233 235 240 238 241 239 237 235 233 238 240 247 247 242 243 246 249 253 265 263 268 265 257 256 241 259 256 238 247 269 274 265 258 250 265 281 262 261 268 247 235 243 247 249 243 234 233 237 240 242 243 240 237 235
209 212 212 212 210 210 211 212 212 213 216 217 216 212 211 214 218 223 223 224 226 231 235 235 233 233 236 236 235 235 231 227 226 230 235 233 240 246 241 235 233 236 242 247 248 248 249 250 255 255 259 259 257 257 255 244 241 253 256 237 260 268 276 278 272 222 212 262 275 274 269 263 257 250 246 240 229 226 234 234 244 243 240 235 234
207 209 212 212 213 211 209 210 210 212 216 219 214 205 206 213 214 220 222 224 225 230 232 235 237 235 236 237 238 232 227 218 219 223 228 229 228 239 246 252 258 256 250 253 257 255 251 256 253 253 258 256 251 241 247 248 256 265 264 253 266 278 278 272 276 232 194 242 267 268 261 241 248 258 247 245 237 218 237 229 229 235 234 228 231
208 207 206 209 212 214 214 213 212 213 217 219 207 199 204 209 216 221 220 222 221 223 228 232 237 238 239 237 242 228 214 220 225 225 227 226 227 229 235 241 247 252 261 261 261 263 268 274 270 256 249 255 251 246 248 262 268 267 271 278 278 280 274 287 293 293 176 219 243 262 267 233 226 255 252 246 244 238 228 231 226 225 232 233 228
204 205 208 210 215 218 218 217 216 217 220 217 200 198 201 204 209 221 227 227 226 225 228 231 234 237 237 238 236 237 233 230 234 226 222 227 230 230 229 230 233 238 241 249 260 265 263 267 270 263 253 248 255 243 251 268 271 273 272 267 261 266 276 277 271 275 222 177 260 271 276 255 235 236 252 239 234 241 238 235 228 224 228 229 223
208 209 213 215 217 217 218 218 221 221 225 210 197 198 200 199 204 212 229 233 230 231 230 229 231 232 233 234 238 236 238 211 220 238 244 233 220 229 233 231 232 231 235 240 242 248 257 263 267 269 261 261 266 266 233 250 272 278 284 266 251 263 266 270 268 272 278 187 254 271 280 272 270 270 257 238 228 235 244 235 232 230 227 230 203
208 210 212 216 218 216 217 220 223 226 227 211 196 199 198 198 200 201 226 230 234 236 234 232 230 230 229 230 233 237 238 230 226 227 235 241 246 232 231 229 231 229 226 232 237 240 241 250 259 265 263 248 262 262 206 203 271 279 282 274 269 269 266 266 276 278 276 200 248 273 281 276 251 264 260 257 239 234 236 243 233 226 228 226 213
206 207 213 216 218 218 219 220 224 228 230 217 196 197 198 198 197 196 218 227 234 238 237 235 234 233 232 230 231 238 240 235 241 223 229 238 241 251 257 259 255 255 248 236 227 228 230 231 243 250 260 258 257 265 277 283 273 269 269 263 278 285 289 289 282 266 269 247 240 249 265 276 264 258 261 259 252 239 239 238 234 228 228 225 219
212 213 214 217 217 217 219 221 225 230 233 212 197 196 197 197 189 197 213 221 229 236 238 236 235 234 232 232 235 236 236 239 227 205 217 235 245 257 263 262 264 265 262 248 231 232 229 233 233 242 251 257 256 266 270 265 275 63 278 282 300 284 282 284 283 289 286 277 248 248 261 268 265 262 262 263 261 271 259 247 231 226 230 226 219
213 214 216 215 217 221 221 220 224 229 234 212 195 196 193 188 182 206 209 220 227 231 236 237 236 234 231 230 230 237 237 241 226 201 210 214 240 252 259 263 267 269 269 271 231 219 226 230 239 245 251 265 278 270 258 223 178 211 270 283 277 268 277 280 283 286 283 281 264 251 257 270 273 271 279 278 277 268 271 264 260 223 221 225 221
215 217 217 219 219 220 221 222 220 225 232 210 187 193 189 181 187 201 208 216 226 228 233 234 235 235 232 223 227 237 244 240 223 202 203 198 231 243 252 261 265 267 270 271 274 243 210 225 234 242 254 266 267 266 263 243 181 190 214 234 249 260 262 264 268 276 284 291 282 279 268 266 284 288 286 285 280 267 272 265 250 251 223 218 218
218 219 218 220 220 220 223 225 218 223 233 220 187 191 188 184 190 206 210 218 223 228 229 234 232 235 237 222 215 226 234 238 227 203 196 194 224 238 246 259 266 268 271 273 272 277 268 254 231 213 242 245 251 254 245 233 207 200 213 230 247 249 250 260 265 276 287 281 302 188 264 279 289 287 291 291 275 260 251 237 235 231 237 202 202